SCP
0 0 0 0 0 0 -0 -0 -0 -0 0 -0 -0 0 -0 -0 0 -0 0 -0 -0 -0 0 0 0 0 0 0 -0 -0 -0 -0 -0 -0 -0 -0 -0 -0 -0 -0 -0 -0 -0 -0 -0 -0 -0 -0 -0
0 0 0 0 0 0 0 -0 0 -0 -0 -0 -0 0 -0 0 -0 -0 0 -0 -0 -0 -0 0 0 0 0 0 -0 -0 -0 -0 -0 -0 -0 -0 -0 -0 -0 -0 -0 -0 -0 -0 -0 -0 -0 -0 -0
0 0 0 0 0 0 0 0 -0 -0 0 -0 -0 0 0 0 -0 -0 -0 -0 -0 0 0 -0 -0 -0 0 0 0 -0 -0 -0 -0 -0 -0 -0 -0 -0 -0 -0 -0 -0 -0 -0 -0 -0 -0 -0 -0
0 0 0 0 0 0 0 0 -0 -0 0 0 0 -0 -0 0 0 0 -0 -0 -0 -0 -0 0 -0 -0 0 -0 -0 -0 -0 -0 -0 -0 -0 -0 -0 -0 -0 -0 -0 -0 -0 -0 -0 -0 -0 -0 -0
0 0 0 0 0 0 0 0 -0 -0 -0 -0 0 -0 -0 -0 -0 -0 0 0 0 0 -0 -0 -0 -0 -0 -0 -0 -0 -0 -0 -0 -0 -0 -0 -0 -0 -0 -0 -0 -0 -0 -0 -0 -0 -0 -0 0
0 0 0 0 0 0 0 0 -0 -0 0 0 -0 -0 0 -0 0 0 -0 -0 0 -0 -0 -0 0 -0 0 -0 -0 -0 -0 -0 -0 -0 -0 -0 -0 -0 -0 -0 -0 -0 -0 -0 -0 0 0 0 0
0 0 0 0 0 0 0 0 0 0 0 0 0 0 -0 -0 -0 -0 -0 -0 -0 -0 -0 -0 -0 -0 -0 -0 -0 -0 -0 -0 0 0 0 -0 -0 -0 -0 -0 -0 -0 -0 -0 0 0 0 0 0
0 0 0 0 -0 0 0 0 0 0 0 0 0 0 -0 0 0 -0 0 0 0 -0 -0 -0 -0 -0 -0 -0 -0 -0 -0 -0 -0 -0 -0 -0 -0 0 0 0 0 -0 -0 -0 0 0 0 0 0
0 0 0 0 0 0 0 0 0 0 0 0 0 0 -0 -0 0 -0 0 0 0 0 -0 -0 -0 -0 -0 -0 -0 -0 -0 0 0 -0 -0 -0 -0 0 0 0 0 0 0 0 0 0 0 0 0
0 0 0 0 0 0 0 0 0 0 0 0 0 0 -0 -0 0 0 0 0 0 0 0 -0 -0 -0 -0 0 -0 -0 0 -0 -0 0 -0 -0 0 0 0 0 0 0 0 0 0 0 0 0 0
0 0 0 0 0 0 0 0 0 0 0 -0 0 0 -0 -0 0 0 0 0 0 0 0 0 -0 -0 0 0 -0 -0 -0 -0 0 -0 -0 0 0 0 0 0 0 0 0 0 0 0 0 0 0
0 0 0 0 0 0 0 0 0 0 0 0 0 0 0 0 -0 -0 -0 -0 -0 -0 -0 -0 -0 0 0 0 -0 0 0 0 0 0 0 0 0 0 0 0 0 0 0 0 0 0 0 0 0
0 0 0 0 0 0 0 0 0 0 0 0 0 0 0 -0 0 0 0 -0 -0 -0 -0 -0 -0 0 -0 -0 0 -0 -0 -0 -0 -0 0 0 0 0 0 0 0 0 0 0 0 0 0 0 0
0 0 0 0 0 0 0 0 0 0 0 0 0 0 -0 -0 -0 -0 0 -0 -0 -0 -0 -0 -0 -0 -0 0 -0 -0 -0 -0 0 0 0 0 0 0 0 0 0 0 0 0 0 0 0 0 0
0 0 0 0 0 0 0 0 0 0 0 0 0 -0 -0 -0 -0 -0 0 0 -0 -0 -0 -0 -0 -0 -0 -0 -0 0 0 0 0 0 0 0 0 0 0 0 0 0 0 0 0 0 0 0 0
0 0 0 0 0 0 0 0 0 0 0 0 -0 0 0 0 0 0 0 0 -0 -0 -0 -0 0 -0 -0 0 0 0 0 0 0 0 0 0 0 0 0 0 0 0 0 0 0 0 0 0 0
0 0 0 0 0 0 0 0 0 0 0 0 0 0 0 0 0 0 0 0 0 0 0 0 0 0 0 0 0 0 0 0 0 0 0 0 0 0 0 0 0 0 0 0 0 0 0 0 0
0 0 0 0 0 0 0 0 0 0 0 0 0 0 0 0 0 0 0 0 0 0 0 0 0 0 0 0 0 0 0 0 0 0 0 0 0 0 0 0 0 0 0 0 0 0 0 0 0
0 0 0 0 0 0 0 0 0 0 0 0 0 0 0 0 0 0 0 0 0 0 0 0 0 0 0 0 0 0 0 0 0 0 0 0 0 0 0 0 0 0 0 0 0 0 0 0 0
0 0 0 0 0 0 0 0 0 0 0 0 0 0 0 0 0 0 0 0 0 0 0 0 0 0 0 0 0 0 0 0 0 0 0 0 0 0 0 0 0 0 0 0 0 0 0 0 0
0 0 0 0 0 0 0 0 0 0 0 0 0 0 0 0 0 0 0 0 0 0 0 0 0 0 0 0 0 0 0 0 0 0 0 0 0 0 0 0 0 0 0 0 0 0 0 0 0
0 0 0 0 0 0 0 0 0 0 0 0 0 0 0 0 0 0 0 0 0 0 0 0 0 0 0 0 0 0 0 0 0 0 0 0 0 0 0 0 0 0 0 0 0 0 0 0 0
0 0 0 0 0 0 0 0 0 0 0 0 0 0 0 0 0 0 0 0 0 0 0 0 0 0 0 0 0 0 0 0 0 0 0 0 0 0 0 0 0 0 0 0 0 0 0 0 0
0 0 0 0 0 0 0 0 0 0 0 0 0 0 0 0 0 0 0 0 0 0 0 0 0 0 0 0 0 0 0 0 0 0 0 0 0 0 0 0 0 0 0 0 0 0 0 0 0
0 0 0 0 0 0 0 0 0 0 0 0 0 0 0 0 0 0 0 0 0 0 0 0 0 0 0 0 0 0 0 0 0 0 0 0 0 0 0 0 0 0 0 0 0 0 0 0 0
0 0 0 0 0 0 0 0 0 0 0 0 0 0 0 0 0 0 0 0 0 0 0 0 0 0 0 0 0 0 0 0 0 0 0 0 0 0 0 0 0 0 0 0 0 0 0 0 0
0 0 0 0 0 0 0 0 0 0 0 0 0 0 0 0 0 0 0 0 0 0 0 0 0 0 0 0 0 0 0 0 0 0 0 0 0 0 0 0 0 0 0 0 0 0 0 0 0
0 0 0 0 0 0 0 0 0 0 0 0 0 0 0 0 0 0 0 0 0 0 0 0 0 0 0 0 0 0 0 0 0 0 0 0 0 0 0 0 0 0 0 0 0 0 0 0 0
0 0 0 0 0 0 0 0 0 0 0 0 0 0 0 0 0 0 0 0 0 0 0 0 0 0 0 0 0 0 0 0 0 0 0 0 0 0 0 0 0 0 0 0 0 0 0 0 0
0 0 0 0 0 0 0 0 0 0 0 0 0 0 0 0 0 0 0 0 0 0 0 0 0 0 0 0 0 0 0 0 0 0 0 0 0 0 0 0 0 0 0 0 0 0 0 0 0
Wind_Speed_500mb
10 14 14 13 2 6 7 7 15 10 10 12 21 15 21 34 14 15 32 21 27 25 28 27 25 21 25 22 18 20 17 22 23 22 25 28 29 31 32 31 29 30 32 35 34 32 30 34 33
9 10 12 11 5 9 7 16 10 18 21 18 14 10 17 15 18 35 36 30 31 29 32 27 29 31 29 24 20 24 19 20 21 25 26 30 33 35 27 28 28 32 35 36 32 32 32 33 34
3 9 9 5 9 7 11 13 18 22 12 8 10 18 16 14 24 24 44 39 31 27 29 26 26 26 28 29 23 22 18 14 16 23 24 27 28 33 27 25 29 30 33 34 29 31 30 24 25
5 5 9 3 15 10 14 12 35 21 10 8 6 20 18 17 10 30 51 43 39 31 17 26 26 25 28 30 23 22 14 12 17 23 22 21 25 26 28 27 20 30 33 29 25 22 22 23 22
4 8 7 11 7 9 9 28 29 14 19 17 3 18 20 15 23 50 48 45 35 28 24 24 25 26 26 31 26 20 13 14 19 21 20 19 22 22 23 22 22 28 26 19 19 22 19 19 20
8 6 9 11 10 9 7 14 21 15 21 15 13 35 16 21 38 48 41 38 22 30 32 29 29 27 27 30 28 18 14 18 21 20 19 17 19 20 23 24 24 20 18 14 16 20 19 18 16
5 4 16 15 17 10 11 14 9 19 14 16 7 12 24 28 37 49 44 34 24 33 30 29 29 27 27 25 22 19 18 17 16 18 19 17 18 19 21 25 20 15 10 10 13 14 14 14 14
9 5 19 12 16 8 18 18 8 13 11 19 5 9 22 40 41 46 45 36 27 29 26 26 26 24 22 21 20 17 17 14 15 16 17 15 16 17 16 16 15 11 10 8 10 9 10 10 11
2 3 10 11 4 14 30 10 3 16 23 16 9 23 48 43 47 45 46 41 27 31 29 24 21 19 19 18 17 15 13 12 11 11 12 12 12 11 12 10 5 7 9 11 7 6 7 8 9
10 5 15 5 9 15 34 28 16 12 26 17 25 33 39 44 49 50 44 46 41 32 32 30 26 19 13 16 15 13 11 9 8 8 6 9 8 7 10 5 4 8 11 12 9 7 5 6 9
13 7 5 15 14 41 29 17 21 18 13 31 38 41 39 48 46 44 39 39 33 30 29 30 30 25 22 16 14 11 10 7 4 4 3 2 3 2 2 2 3 4 6 6 5 4 3 6 3
4 6 9 7 13 28 21 23 9 5 11 28 33 36 42 46 47 45 40 37 34 30 25 30 33 32 25 21 16 14 12 12 10 8 7 5 5 3 6 4 4 5 5 6 6 5 8 5 4
10 7 10 15 17 17 25 16 7 24 17 22 31 29 37 40 40 40 38 36 35 37 32 33 32 33 32 25 23 20 19 16 14 13 11 11 11 9 9 9 10 10 9 10 10 9 8 9 10
13 17 21 20 17 9 9 10 6 20 19 15 28 33 35 37 39 37 39 39 39 38 39 36 31 33 36 38 28 23 20 16 16 17 17 16 16 14 15 14 14 14 14 15 15 15 16 16 16
18 12 9 16 22 6 6 5 8 17 19 23 24 24 30 35 36 38 39 38 39 38 36 36 34 32 37 37 34 33 30 28 26 22 20 19 20 21 20 20 20 20 18 17 18 22 24 25 27
13 11 12 7 12 6 6 4 16 20 18 19 19 29 28 28 33 35 33 37 37 40 41 39 38 38 32 35 34 33 31 25 23 24 25 23 21 24 25 25 26 25 26 23 22 27 32 34 37
16 11 12 8 8 9 8 10 13 13 18 23 21 28 27 27 31 31 33 33 37 37 37 38 43 46 39 32 32 31 32 31 28 24 23 24 25 23 26 29 28 31 29 30 30 32 38 41 44
12 9 15 14 14 3 9 3 13 18 13 19 21 20 21 24 20 27 31 31 32 35 35 38 45 45 38 34 33 34 34 34 32 31 28 26 26 28 29 29 31 34 35 35 40 43 45 47 54
19 18 12 13 6 8 13 10 17 28 17 11 17 19 25 23 29 33 38 46 48 46 41 44 42 45 41 38 39 38 38 36 37 36 36 37 35 34 35 35 36 38 42 41 44 45 49 52 53
11 18 12 11 9 5 14 19 14 26 20 20 20 15 14 19 23 24 30 34 40 46 50 49 47 43 44 39 40 41 38 39 37 35 37 40 44 43 39 40 40 40 42 46 45 48 53 56 55
12 16 11 10 8 2 2 8 17 3 10 12 14 20 19 18 16 14 17 25 32 38 45 52 50 45 42 37 32 33 38 39 33 29 29 30 32 33 34 34 34 38 39 44 45 48 51 57 58
10 6 15 24 14 9 12 8 14 14 14 14 20 19 21 24 21 17 17 18 22 28 37 45 48 47 42 29 30 25 26 27 25 23 21 20 22 26 27 30 32 34 36 41 42 43 49 51 59
5 15 14 11 8 5 6 3 2 18 15 15 22 23 22 24 23 16 12 11 11 13 18 30 40 49 48 46 23 18 15 11 9 12 15 15 18 17 18 26 29 30 33 38 41 44 48 51 58
14 17 12 8 6 3 11 13 8 12 15 17 28 27 26 24 24 23 19 17 20 20 20 23 28 31 34 39 40 30 19 16 16 14 10 13 13 16 25 29 33 35 37 37 41 44 47 51 55
11 14 5 3 2 10 14 6 14 7 13 23 33 40 34 26 27 30 28 28 29 31 33 33 31 32 28 25 26 21 17 15 14 13 11 9 7 7 8 12 15 19 24 29 34 38 42 48 53
13 15 10 12 9 8 7 12 10 6 24 51 45 44 41 38 33 31 34 38 38 38 39 40 41 43 39 35 32 27 25 22 18 15 13 12 12 14 16 19 21 24 27 32 35 38 40 45 47
12 11 7 13 4 8 10 9 2 4 14 39 48 47 42 38 35 34 35 38 41 42 42 40 40 41 38 35 32 27 24 20 18 16 14 15 16 18 22 26 29 31 35 37 41 45 48 49 52
4 14 7 1 9 8 11 7 10 17 25 23 31 46 46 43 41 38 37 39 40 40 40 39 37 37 35 31 27 23 18 16 15 15 16 18 20 24 28 31 35 39 42 46 49 51 52 57 56
4 7 6 9 8 10 5 11 2 35 36 33 40 49 54 51 47 44 42 40 40 40 40 38 34 31 28 24 21 18 15 14 14 16 19 23 28 32 36 40 44 49 53 56 59 60 62 64 66
6 11 13 9 7 2 6 10 6 4 38 50 50 53 55 52 50 48 46 43 41 40 37 34 30 26 23 20 17 13 12 13 15 18 22 26 31 37 44 48 53 55 56 58 61 65 66 68 72
Wind_Direction_500mb
62 51 20 291 265 212 113 81 92 105 90 60 52 30 84 48 21 111 140 156 168 174 153 139 130 126 119 136 130 113 88 80 69 79 85 83 79 86 81 76 83 86 84 88 93 97 92 88 90
52 48 308 279 226 218 110 117 132 75 98 101 82 8 95 81 86 129 131 149 160 173 157 138 127 123 132 134 134 122 105 74 67 77 84 88 88 91 81 75 78 88 95 89 88 90 92 94 101
59 50 299 239 249 345 117 146 98 94 106 108 120 56 24 99 122 136 140 137 143 122 153 146 142 136 136 137 130 125 110 76 69 77 86 92 97 104 100 78 84 81 98 88 89 89 94 98 109
51 240 250 284 255 33 102 121 119 124 96 79 16 90 82 96 109 150 139 136 133 157 139 140 136 135 134 132 125 123 119 89 66 75 84 90 96 108 104 98 80 82 87 89 90 85 94 85 83
358 296 257 229 73 81 350 111 137 167 150 137 13 78 95 92 124 135 142 141 155 158 143 135 130 126 137 134 123 128 138 116 89 83 86 88 89 95 111 102 86 89 88 95 83 77 83 82 89
262 264 276 229 114 95 95 114 157 136 117 103 128 105 88 129 133 137 141 140 164 158 150 143 136 136 134 142 136 142 135 90 73 76 82 92 91 92 102 90 81 80 102 94 82 78 79 80 81
242 214 256 257 130 149 132 162 184 121 145 104 109 86 136 138 147 144 139 145 159 140 149 144 139 135 133 139 141 130 106 97 93 86 86 84 88 92 106 108 102 102 99 112 88 77 78 73 66
265 267 265 286 135 136 131 165 155 138 66 118 92 126 161 155 154 146 145 153 177 166 143 142 139 138 138 138 139 134 123 112 98 88 85 84 88 97 104 127 132 109 116 91 83 69 66 57 54
250 294 243 244 223 120 151 119 68 99 120 99 89 75 150 161 154 153 154 157 186 168 158 152 149 144 146 151 148 144 132 122 111 98 91 89 83 91 95 92 125 81 55 56 73 71 47 35 39
213 246 238 208 44 134 165 145 148 148 133 121 109 120 150 153 160 163 167 167 185 180 171 168 160 162 166 159 165 162 156 156 146 121 95 65 60 62 62 63 43 42 38 36 37 48 37 20 47
186 248 141 47 62 140 163 150 161 153 184 165 153 151 155 156 165 175 177 178 196 191 192 187 174 175 180 201 186 184 186 180 195 171 182 112 65 38 23 32 5 22 27 42 28 31 14 45 212
281 250 13 108 103 139 145 124 162 219 99 123 177 165 159 164 173 183 184 189 190 201 210 202 196 183 188 205 198 200 202 212 221 233 235 251 278 278 302 307 310 343 328 3 340 345 356 355 295
202 139 85 128 125 115 135 135 149 119 135 150 141 162 168 172 180 188 192 196 197 197 204 228 213 204 190 202 197 208 197 226 230 242 246 254 262 271 276 282 291 297 304 311 318 315 319 322 328
182 140 138 137 126 111 140 93 104 112 149 166 156 169 175 180 184 189 197 198 204 202 203 226 233 219 209 207 211 206 219 215 228 246 246 248 258 267 270 274 280 286 293 297 303 304 306 307 313
141 114 139 144 158 130 114 110 208 164 169 191 184 176 186 187 189 196 198 203 204 210 209 214 237 236 227 227 229 227 233 222 230 229 257 257 254 264 272 278 281 282 282 291 305 310 309 307 301
172 161 149 164 163 156 179 219 122 159 173 194 183 180 180 194 196 200 203 202 207 213 210 211 223 241 242 229 231 235 241 242 242 243 247 256 262 256 264 269 276 278 273 271 280 294 298 299 300
207 176 179 163 249 137 186 149 151 152 199 220 175 185 184 197 197 201 201 208 205 212 210 208 221 234 242 233 230 232 236 243 244 248 251 251 262 266 258 264 266 271 275 274 274 282 285 290 294
162 240 189 152 200 153 186 182 156 169 186 186 180 173 181 189 199 198 202 206 209 210 214 214 220 237 239 229 228 231 237 242 245 251 262 263 270 272 273 272 273 273 278 273 276 276 279 286 288
175 203 150 103 111 149 204 205 178 169 178 219 167 183 178 172 187 201 210 209 208 209 207 214 224 237 240 230 227 233 238 245 252 252 262 266 268 279 279 277 275 277 284 288 285 288 289 289 297
267 178 167 60 104 98 203 225 241 162 176 199 191 160 178 200 226 223 225 223 224 221 215 213 218 229 245 249 232 236 244 251 260 261 260 265 272 276 277 278 279 277 279 284 285 290 292 293 292
240 174 154 130 125 296 73 257 206 160 134 185 206 197 191 165 198 225 218 225 228 223 217 216 212 213 233 243 243 237 244 249 254 262 269 271 273 275 282 282 282 280 281 279 283 286 288 291 295
181 52 132 124 147 201 172 262 190 157 163 199 177 185 177 181 170 197 207 214 220 223 222 219 210 205 208 226 244 243 238 245 257 270 273 282 285 286 285 288 288 286 287 288 290 291 291 293 293
170 119 129 142 182 144 225 105 232 136 181 186 172 157 149 157 176 176 180 176 179 193 196 204 205 203 202 202 204 222 262 245 238 244 260 262 264 273 285 287 296 297 298 293 290 291 290 290 292
139 95 77 84 116 300 206 165 226 181 202 146 151 161 159 162 159 150 146 139 133 131 140 157 177 186 192 200 197 199 199 195 200 248 242 258 269 272 266 269 277 282 283 285 286 290 294 296 295
143 140 117 154 191 219 334 125 244 181 154 152 155 156 159 159 145 136 139 136 130 129 128 132 142 144 152 167 173 180 166 137 112 95 84 70 46 20 350 334 324 316 308 304 303 300 298 295 291
200 170 151 179 175 208 333 224 243 77 136 152 155 159 154 152 153 151 146 136 131 128 126 126 126 123 125 127 125 123 116 112 107 97 79 59 35 16 3 354 347 340 333 327 323 321 318 313 311
207 216 121 105 36 75 208 257 129 122 123 138 151 158 154 154 156 149 143 140 136 132 128 127 126 123 122 121 117 114 109 102 89 73 55 38 22 7 357 350 346 341 336 332 328 326 323 319 319
213 145 85 69 131 226 235 232 201 197 183 158 158 168 162 161 160 156 152 146 141 138 135 132 131 129 124 122 119 113 102 88 69 51 29 17 6 357 351 345 340 337 334 329 325 322 319 316 315
148 181 191 153 166 172 162 255 298 191 183 173 173 175 166 168 165 163 158 154 150 146 144 141 137 132 130 124 112 99 81 60 40 22 11 1 354 346 341 336 332 328 325 321 318 316 315 314 313
329 199 180 151 227 93 147 271 321 179 175 175 176 175 174 173 171 170 166 162 159 154 147 145 143 140 128 115 102 88 64 37 13 3 355 347 342 337 332 329 325 322 321 320 318 317 316 315 314
Wind_Speed_850mb
10 14 14 13 2 6 7 7 15 10 10 12 21 15 21 34 14 15 32 21 27 25 28 27 25 21 25 22 18 20 17 22 23 22 25 28 29 31 32 31 29 30 32 35 34 32 30 34 33
9 10 12 11 5 9 7 16 10 18 21 18 14 10 17 15 18 35 36 30 31 29 32 27 29 31 29 24 20 24 19 20 21 25 26 30 33 35 27 28 28 32 35 36 32 32 32 33 34
3 9 9 5 9 7 11 13 18 22 12 8 10 18 16 14 24 24 44 39 31 27 29 26 26 26 28 29 23 22 18 14 16 23 24 27 28 33 27 25 29 30 33 34 29 31 30 24 25
5 5 9 3 15 10 14 12 35 21 10 8 6 20 18 17 10 30 51 43 39 31 17 26 26 25 28 30 23 22 14 12 17 23 22 21 25 26 28 27 20 30 33 29 25 22 22 23 22
4 8 7 11 7 9 9 28 29 14 19 17 3 18 20 15 23 50 48 45 35 28 24 24 25 26 26 31 26 20 13 14 19 21 20 19 22 22 23 22 22 28 26 19 19 22 19 19 20
8 6 9 11 10 9 7 14 21 15 21 15 13 35 16 21 38 48 41 38 22 30 32 29 29 27 27 30 28 18 14 18 21 20 19 17 19 20 23 24 24 20 18 14 16 20 19 18 16
5 4 16 15 17 10 11 14 9 19 14 16 7 12 24 28 37 49 44 34 24 33 30 29 29 27 27 25 22 19 18 17 16 18 19 17 18 19 21 25 20 15 10 10 13 14 14 14 14
9 5 19 12 16 8 18 18 8 13 11 19 5 9 22 40 41 46 45 36 27 29 26 26 26 24 22 21 20 17 17 14 15 16 17 15 16 17 16 16 15 11 10 8 10 9 10 10 11
2 3 10 11 4 14 30 10 3 16 23 16 9 23 48 43 47 45 46 41 27 31 29 24 21 19 19 18 17 15 13 12 11 11 12 12 12 11 12 10 5 7 9 11 7 6 7 8 9
10 5 15 5 9 15 34 28 16 12 26 17 25 33 39 44 49 50 44 46 41 32 32 30 26 19 13 16 15 13 11 9 8 8 6 9 8 7 10 5 4 8 11 12 9 7 5 6 9
13 7 5 15 14 41 29 17 21 18 13 31 38 41 39 48 46 44 39 39 33 30 29 30 30 25 22 16 14 11 10 7 4 4 3 2 3 2 2 2 3 4 6 6 5 4 3 6 3
4 6 9 7 13 28 21 23 9 5 11 28 33 36 42 46 47 45 40 37 34 30 25 30 33 32 25 21 16 14 12 12 10 8 7 5 5 3 6 4 4 5 5 6 6 5 8 5 4
10 7 10 15 17 17 25 16 7 24 17 22 31 29 37 40 40 40 38 36 35 37 32 33 32 33 32 25 23 20 19 16 14 13 11 11 11 9 9 9 10 10 9 10 10 9 8 9 10
13 17 21 20 17 9 9 10 6 20 19 15 28 33 35 37 39 37 39 39 39 38 39 36 31 33 36 38 28 23 20 16 16 17 17 16 16 14 15 14 14 14 14 15 15 15 16 16 16
18 12 9 16 22 6 6 5 8 17 19 23 24 24 30 35 36 38 39 38 39 38 36 36 34 32 37 37 34 33 30 28 26 22 20 19 20 21 20 20 20 20 18 17 18 22 24 25 27
13 11 12 7 12 6 6 4 16 20 18 19 19 29 28 28 33 35 33 37 37 40 41 39 38 38 32 35 34 33 31 25 23 24 25 23 21 24 25 25 26 25 26 23 22 27 32 34 37
16 11 12 8 8 9 8 10 13 13 18 23 21 28 27 27 31 31 33 33 37 37 37 38 43 46 39 32 32 31 32 31 28 24 23 24 25 23 26 29 28 31 29 30 30 32 38 41 44
12 9 15 14 14 3 9 3 13 18 13 19 21 20 21 24 20 27 31 31 32 35 35 38 45 45 38 34 33 34 34 34 32 31 28 26 26 28 29 29 31 34 35 35 40 43 45 47 54
19 18 12 13 6 8 13 10 17 28 17 11 17 19 25 23 29 33 38 46 48 46 41 44 42 45 41 38 39 38 38 36 37 36 36 37 35 34 35 35 36 38 42 41 44 45 49 52 53
11 18 12 11 9 5 14 19 14 26 20 20 20 15 14 19 23 24 30 34 40 46 50 49 47 43 44 39 40 41 38 39 37 35 37 40 44 43 39 40 40 40 42 46 45 48 53 56 55
12 16 11 10 8 2 2 8 17 3 10 12 14 20 19 18 16 14 17 25 32 38 45 52 50 45 42 37 32 33 38 39 33 29 29 30 32 33 34 34 34 38 39 44 45 48 51 57 58
10 6 15 24 14 9 12 8 14 14 14 14 20 19 21 24 21 17 17 18 22 28 37 45 48 47 42 29 30 25 26 27 25 23 21 20 22 26 27 30 32 34 36 41 42 43 49 51 59
5 15 14 11 8 5 6 3 2 18 15 15 22 23 22 24 23 16 12 11 11 13 18 30 40 49 48 46 23 18 15 11 9 12 15 15 18 17 18 26 29 30 33 38 41 44 48 51 58
14 17 12 8 6 3 11 13 8 12 15 17 28 27 26 24 24 23 19 17 20 20 20 23 28 31 34 39 40 30 19 16 16 14 10 13 13 16 25 29 33 35 37 37 41 44 47 51 55
11 14 5 3 2 10 14 6 14 7 13 23 33 40 34 26 27 30 28 28 29 31 33 33 31 32 28 25 26 21 17 15 14 13 11 9 7 7 8 12 15 19 24 29 34 38 42 48 53
13 15 10 12 9 8 7 12 10 6 24 51 45 44 41 38 33 31 34 38 38 38 39 40 41 43 39 35 32 27 25 22 18 15 13 12 12 14 16 19 21 24 27 32 35 38 40 45 47
12 11 7 13 4 8 10 9 2 4 14 39 48 47 42 38 35 34 35 38 41 42 42 40 40 41 38 35 32 27 24 20 18 16 14 15 16 18 22 26 29 31 35 37 41 45 48 49 52
4 14 7 1 9 8 11 7 10 17 25 23 31 46 46 43 41 38 37 39 40 40 40 39 37 37 35 31 27 23 18 16 15 15 16 18 20 24 28 31 35 39 42 46 49 51 52 57 56
4 7 6 9 8 10 5 11 2 35 36 33 40 49 54 51 47 44 42 40 40 40 40 38 34 31 28 24 21 18 15 14 14 16 19 23 28 32 36 40 44 49 53 56 59 60 62 64 66
6 11 13 9 7 2 6 10 6 4 38 50 50 53 55 52 50 48 46 43 41 40 37 34 30 26 23 20 17 13 12 13 15 18 22 26 31 37 44 48 53 55 56 58 61 65 66 68 72
Wind_Direction_850mb
62 51 20 291 265 212 113 81 92 105 90 60 52 30 84 48 21 111 140 156 168 174 153 139 130 126 119 136 130 113 88 80 69 79 85 83 79 86 81 76 83 86 84 88 93 97 92 88 90
52 48 308 279 226 218 110 117 132 75 98 101 82 8 95 81 86 129 131 149 160 173 157 138 127 123 132 134 134 122 105 74 67 77 84 88 88 91 81 75 78 88 95 89 88 90 92 94 101
59 50 299 239 249 345 117 146 98 94 106 108 120 56 24 99 122 136 140 137 143 122 153 146 142 136 136 137 130 125 110 76 69 77 86 92 97 104 100 78 84 81 98 88 89 89 94 98 109
51 240 250 284 255 33 102 121 119 124 96 79 16 90 82 96 109 150 139 136 133 157 139 140 136 135 134 132 125 123 119 89 66 75 84 90 96 108 104 98 80 82 87 89 90 85 94 85 83
358 296 257 229 73 81 350 111 137 167 150 137 13 78 95 92 124 135 142 141 155 158 143 135 130 126 137 134 123 128 138 116 89 83 86 88 89 95 111 102 86 89 88 95 83 77 83 82 89
262 264 276 229 114 95 95 114 157 136 117 103 128 105 88 129 133 137 141 140 164 158 150 143 136 136 134 142 136 142 135 90 73 76 82 92 91 92 102 90 81 80 102 94 82 78 79 80 81
242 214 256 257 130 149 132 162 184 121 145 104 109 86 136 138 147 144 139 145 159 140 149 144 139 135 133 139 141 130 106 97 93 86 86 84 88 92 106 108 102 102 99 112 88 77 78 73 66
265 267 265 286 135 136 131 165 155 138 66 118 92 126 161 155 154 146 145 153 177 166 143 142 139 138 138 138 139 134 123 112 98 88 85 84 88 97 104 127 132 109 116 91 83 69 66 57 54
250 294 243 244 223 120 151 119 68 99 120 99 89 75 150 161 154 153 154 157 186 168 158 152 149 144 146 151 148 144 132 122 111 98 91 89 83 91 95 92 125 81 55 56 73 71 47 35 39
213 246 238 208 44 134 165 145 148 148 133 121 109 120 150 153 160 163 167 167 185 180 171 168 160 162 166 159 165 162 156 156 146 121 95 65 60 62 62 63 43 42 38 36 37 48 37 20 47
186 248 141 47 62 140 163 150 161 153 184 165 153 151 155 156 165 175 177 178 196 191 192 187 174 175 180 201 186 184 186 180 195 171 182 112 65 38 23 32 5 22 27 42 28 31 14 45 212
281 250 13 108 103 139 145 124 162 219 99 123 177 165 159 164 173 183 184 189 190 201 210 202 196 183 188 205 198 200 202 212 221 233 235 251 278 278 302 307 310 343 328 3 340 345 356 355 295
202 139 85 128 125 115 135 135 149 119 135 150 141 162 168 172 180 188 192 196 197 197 204 228 213 204 190 202 197 208 197 226 230 242 246 254 262 271 276 282 291 297 304 311 318 315 319 322 328
182 140 138 137 126 111 140 93 104 112 149 166 156 169 175 180 184 189 197 198 204 202 203 226 233 219 209 207 211 206 219 215 228 246 246 248 258 267 270 274 280 286 293 297 303 304 306 307 313
141 114 139 144 158 130 114 110 208 164 169 191 184 176 186 187 189 196 198 203 204 210 209 214 237 236 227 227 229 227 233 222 230 229 257 257 254 264 272 278 281 282 282 291 305 310 309 307 301
172 161 149 164 163 156 179 219 122 159 173 194 183 180 180 194 196 200 203 202 207 213 210 211 223 241 242 229 231 235 241 242 242 243 247 256 262 256 264 269 276 278 273 271 280 294 298 299 300
207 176 179 163 249 137 186 149 151 152 199 220 175 185 184 197 197 201 201 208 205 212 210 208 221 234 242 233 230 232 236 243 244 248 251 251 262 266 258 264 266 271 275 274 274 282 285 290 294
162 240 189 152 200 153 186 182 156 169 186 186 180 173 181 189 199 198 202 206 209 210 214 214 220 237 239 229 228 231 237 242 245 251 262 263 270 272 273 272 273 273 278 273 276 276 279 286 288
175 203 150 103 111 149 204 205 178 169 178 219 167 183 178 172 187 201 210 209 208 209 207 214 224 237 240 230 227 233 238 245 252 252 262 266 268 279 279 277 275 277 284 288 285 288 289 289 297
267 178 167 60 104 98 203 225 241 162 176 199 191 160 178 200 226 223 225 223 224 221 215 213 218 229 245 249 232 236 244 251 260 261 260 265 272 276 277 278 279 277 279 284 285 290 292 293 292
240 174 154 130 125 296 73 257 206 160 134 185 206 197 191 165 198 225 218 225 228 223 217 216 212 213 233 243 243 237 244 249 254 262 269 271 273 275 282 282 282 280 281 279 283 286 288 291 295
181 52 132 124 147 201 172 262 190 157 163 199 177 185 177 181 170 197 207 214 220 223 222 219 210 205 208 226 244 243 238 245 257 270 273 282 285 286 285 288 288 286 287 288 290 291 291 293 293
170 119 129 142 182 144 225 105 232 136 181 186 172 157 149 157 176 176 180 176 179 193 196 204 205 203 202 202 204 222 262 245 238 244 260 262 264 273 285 287 296 297 298 293 290 291 290 290 292
139 95 77 84 116 300 206 165 226 181 202 146 151 161 159 162 159 150 146 139 133 131 140 157 177 186 192 200 197 199 199 195 200 248 242 258 269 272 266 269 277 282 283 285 286 290 294 296 295
143 140 117 154 191 219 334 125 244 181 154 152 155 156 159 159 145 136 139 136 130 129 128 132 142 144 152 167 173 180 166 137 112 95 84 70 46 20 350 334 324 316 308 304 303 300 298 295 291
200 170 151 179 175 208 333 224 243 77 136 152 155 159 154 152 153 151 146 136 131 128 126 126 126 123 125 127 125 123 116 112 107 97 79 59 35 16 3 354 347 340 333 327 323 321 318 313 311
207 216 121 105 36 75 208 257 129 122 123 138 151 158 154 154 156 149 143 140 136 132 128 127 126 123 122 121 117 114 109 102 89 73 55 38 22 7 357 350 346 341 336 332 328 326 323 319 319
213 145 85 69 131 226 235 232 201 197 183 158 158 168 162 161 160 156 152 146 141 138 135 132 131 129 124 122 119 113 102 88 69 51 29 17 6 357 351 345 340 337 334 329 325 322 319 316 315
148 181 191 153 166 172 162 255 298 191 183 173 173 175 166 168 165 163 158 154 150 146 144 141 137 132 130 124 112 99 81 60 40 22 11 1 354 346 341 336 332 328 325 321 318 316 315 314 313
329 199 180 151 227 93 147 271 321 179 175 175 176 175 174 173 171 170 166 162 159 154 147 145 143 140 128 115 102 88 64 37 13 3 355 347 342 337 332 329 325 322 321 320 318 317 316 315 314